EHI
4 3 1 1 4 4 2 1 0 0 0 0 0 0 0 0 0 1 6 14 19 19 16 12 11 9 6 3 1 0 0 0 0 0 0 0 0 0 0 0 0 0 0
3 3 2 2 3 4 3 2 1 0 0 0 0 0 0 0 1 2 5 10 16 18 15 10 8 6 3 2 1 0 0 0 0 0 0 0 0 0 0 0 0 0 0
2 2 3 3 3 3 3 3 3 2 1 0 0 0 0 0 1 2 3 5 9 11 9 6 3 2 1 1 1 0 0 0 0 0 0 0 0 0 0 0 0 0 0
2 2 3 3 3 3 3 4 4 3 1 0 0 0 0 0 0 1 1 2 3 3 3 2 2 1 0 0 0 0 1 1 2 1 1 1 0 0 0 0 0 0 0
5 3 2 3 3 3 3 3 4 3 1 0 0 0 0 0 0 0 0 1 1 0 0 1 1 1 1 0 0 0 1 2 3 3 2 1 0 0 0 0 0 0 0
6 3 1 2 3 3 3 3 3 2 1 0 0 0 0 0 0 0 0 0 0 0 0 0 1 1 1 1 0 0 1 2 2 2 2 1 0 0 0 0 0 0 0
4 3 1 1 2 2 2 2 2 1 0 0 0 0 0 0 0 0 0 0 0 0 0 0 0 0 0 0 0 0 0 1 1 1 1 0 0 0 0 0 0 0 0
2 1 0 0 1 1 1 1 1 0 0 0 0 0 0 0 0 0 0 0 0 0 0 0 0 0 0 0 0 0 0 0 0 0 0 0 0 0 0 0 0 0 0
1 0 0 0 0 0 0 0 0 0 0 0 0 0 0 0 0 0 0 0 0 0 0 0 0 0 0 0 0 0 0 0 0 0 0 0 0 0 0 0 0 0 0
0 0 0 0 0 0 0 0 0 0 0 0 0 0 0 0 0 0 0 0 0 0 0 0 0 0 0 0 0 0 0 0 0 0 0 0 0 0 0 0 0 0 0
0 0 0 0 0 0 0 0 0 0 0 0 0 0 0 0 0 0 0 0 0 0 0 0 0 0 0 0 0 0 0 0 0 0 0 0 0 0 0 0 0 0 0
0 0 0 0 0 0 0 0 0 0 0 0 0 0 0 0 0 0 0 0 0 0 0 0 0 0 0 0 0 0 0 0 0 0 0 0 0 0 0 0 0 0 0
0 0 0 0 0 0 0 0 0 0 0 0 0 0 0 0 0 0 0 0 0 0 0 0 0 0 0 0 0 0 0 0 0 0 0 0 0 0 0 0 0 0 0
0 0 0 0 0 0 0 0 0 0 0 0 0 0 0 0 0 0 0 0 0 0 0 0 0 0 0 0 0 0 0 0 0 0 0 0 0 0 0 0 0 0 0
0 0 0 0 0 0 0 0 0 0 0 0 0 0 0 0 0 0 0 0 0 0 0 0 0 0 0 0 0 0 0 0 0 0 0 0 0 0 0 0 0 0 0
0 0 0 0 0 0 0 0 0 0 0 0 0 0 0 0 0 0 0 0 0 0 0 0 0 0 0 0 0 0 0 0 0 0 0 0 0 0 0 0 0 0 0
0 0 0 0 0 0 0 0 0 0 0 0 0 0 0 0 0 0 0 0 0 0 0 0 0 0 0 0 0 0 0 0 0 0 0 0 0 0 0 0 0 0 0
0 0 0 0 0 0 0 0 0 0 0 0 0 0 0 0 0 0 0 0 0 0 0 0 0 0 0 0 0 0 0 0 0 0 0 0 0 0 0 0 0 0 0
0 0 0 0 0 0 0 0 0 0 0 0 0 0 0 0 0 0 0 0 0 0 0 0 0 0 0 0 0 0 0 0 0 0 0 0 0 0 0 0 0 0 0
0 0 0 0 0 0 0 0 0 0 0 0 0 0 0 0 0 0 0 0 0 0 0 0 0 0 0 0 0 0 0 0 0 0 0 0 0 0 0 0 0 0 0
0 0 0 0 0 0 0 0 0 0 0 0 0 0 0 0 0 0 0 0 0 0 0 0 0 0 0 0 0 0 0 0 0 0 0 0 0 0 0 0 0 0 0
0 0 0 0 0 0 0 0 0 0 0 0 0 0 0 0 0 0 0 0 0 0 0 0 0 0 0 0 0 0 0 0 0 0 0 0 0 0 0 0 0 0 0
0 0 0 0 0 0 0 0 0 0 0 0 0 0 0 0 0 0 0 0 0 0 0 0 0 0 0 0 0 0 0 0 0 0 0 0 0 0 0 0 0 0 0
0 0 0 0 0 0 0 0 0 0 0 0 0 0 0 0 0 0 0 0 0 0 0 0 0 0 0 0 0 0 0 0 0 0 0 0 0 0 0 0 0 0 0
0 0 0 0 0 0 0 0 0 0 0 0 0 0 0 0 0 0 0 0 0 0 0 0 0 0 0 0 0 0 0 0 0 0 0 0 0 0 0 0 0 0 0
0 0 0 0 0 0 0 0 0 0 0 0 0 0 0 0 0 0 0 0 0 0 0 0 0 0 0 0 0 0 0 0 0 0 0 0 0 0 0 0 0 0 0
Wind_Speed
4 3 3 3 4 3 3 2 2 2 2 2 3 4 4 4 4 3 3 8 8 8 9 10 10 9 9 8 8 8 7 7 7 6 6 5 5 5 5 5 4 4 3
4 4 4 4 4 4 3 3 3 2 2 2 2 3 4 5 4 4 3 5 8 8 9 10 10 10 10 10 9 9 8 8 7 7 7 7 7 6 5 5 5 5 5
4 4 4 4 4 3 3 2 2 2 2 3 3 3 4 4 5 5 5 4 4 8 11 11 11 11 11 11 10 10 9 9 9 9 9 8 8 7 6 6 6 5 5
4 4 3 3 3 3 3 3 3 3 2 3 3 3 3 4 5 6 5 5 4 4 8 12 13 12 12 12 11 11 10 10 10 9 9 8 8 7 7 7 6 6 5
3 3 3 2 3 3 4 4 3 3 4 4 4 4 3 4 4 6 6 6 6 5 5 9 13 13 13 12 12 11 11 11 10 10 9 9 8 7 7 7 7 6 5
3 2 2 2 2 3 3 4 5 4 4 5 6 6 4 4 4 4 6 6 6 6 6 6 6 9 13 12 12 11 11 10 9 9 9 8 8 7 7 6 6 6 6
2 2 1 2 2 3 4 5 5 6 5 6 6 5 5 5 5 4 4 5 6 6 6 6 5 4 5 11 11 11 10 10 9 8 8 8 8 7 7 6 5 5 4
2 1 1 2 2 2 3 5 5 5 4 4 5 5 4 3 4 4 3 4 5 4 5 6 5 5 4 3 7 11 10 8 8 8 8 8 7 6 6 6 5 4 4
3 2 2 2 1 2 3 3 5 6 5 2 2 5 6 5 3 2 3 3 4 4 4 4 6 5 5 4 4 7 9 8 7 7 7 7 6 6 5 5 5 5 4
4 3 3 2 2 2 2 2 3 4 6 4 1 1 3 6 6 4 2 2 3 4 4 4 5 4 5 3 4 7 8 7 7 7 6 6 5 5 5 5 5 5 5
5 5 4 3 3 2 3 3 4 4 3 3 3 2 3 3 3 5 5 3 2 2 3 3 3 3 4 3 3 5 7 6 6 5 5 4 4 4 4 4 5 5 6
4 6 5 4 4 3 3 3 4 5 4 5 3 3 3 3 3 4 5 4 3 1 2 2 3 3 3 3 4 7 6 5 4 3 3 2 3 3 3 4 5 5 6
4 5 5 5 4 5 5 5 6 6 5 6 5 3 3 2 3 3 6 5 3 2 2 1 1 2 3 2 3 7 6 5 4 3 2 1 1 2 2 3 4 5 5
4 5 6 6 6 7 7 7 7 6 6 6 7 5 4 3 3 3 4 6 5 2 2 1 1 1 2 3 3 5 3 6 5 4 3 2 1 1 2 2 3 4 4
5 6 7 7 7 8 8 7 6 6 6 7 6 6 5 3 3 3 4 5 6 5 2 1 1 1 2 2 4 2 2 6 7 6 5 4 4 3 3 3 3 3 4
6 7 7 8 8 8 8 8 7 7 8 7 6 7 6 4 4 4 4 3 3 5 4 2 2 2 2 2 5 3 3 6 7 7 7 7 6 5 4 4 4 4 4
6 7 7 7 8 8 7 8 8 8 9 8 7 8 7 6 5 5 5 4 4 4 5 2 1 1 1 1 1 1 2 3 3 7 8 8 8 7 6 5 5 4 4
7 7 7 8 8 8 7 7 8 8 8 8 7 8 7 7 7 5 5 5 4 4 5 4 1 1 0 1 1 1 2 2 2 5 7 8 9 8 7 6 6 5 5
7 7 8 8 7 7 7 7 7 7 7 7 7 7 6 8 8 6 6 5 4 4 4 4 2 1 1 1 1 2 2 2 2 2 5 7 8 8 8 7 7 7 6
7 7 7 7 7 7 7 7 7 7 7 7 6 6 6 7 6 6 5 5 5 5 5 4 3 2 2 2 2 2 2 2 2 2 2 2 5 7 8 8 8 8 7
7 6 7 7 7 7 6 6 6 7 6 7 6 6 6 7 8 6 4 4 5 4 4 4 3 2 2 2 1 1 1 2 2 1 2 2 2 2 3 6 8 8 8
6 7 7 7 7 6 8 10 6 5 5 6 5 5 6 7 8 9 8 6 5 5 4 3 2 2 0 1 0 1 1 2 3 2 1 2 1 2 3 3 6 8 8
6 6 6 6 6 7 10 10 9 5 5 5 5 4 4 6 6 5 7 8 6 5 5 4 3 2 2 2 1 0 0 1 3 3 0 2 2 2 3 4 7 8 8
5 4 4 5 5 7 10 10 9 6 6 5 5 5 5 4 5 5 5 6 5 3 1 1 2 3 3 3 3 2 2 2 3 2 1 1 2 3 3 3 5 7 8
4 3 3 4 5 6 9 10 8 5 5 5 4 4 4 4 6 7 6 5 5 4 3 2 3 4 5 5 4 2 1 2 2 3 1 1 2 2 3 3 4 6 8
3 3 4 3 4 4 8 9 8 4 5 4 3 3 4 4 5 6 4 3 3 3 5 6 5 4 3 2 4 4 3 2 1 3 2 1 1 1 3 3 3 3 4
Wind_Direction
172 170 176 180 180 173 174 177 184 194 213 233 203 174 165 156 151 148 152 159 158 157 157 154 150 146 141 135 127 122 123 124 124 123 120 115 111 109 105 102 100 97 93
178 179 183 182 183 179 179 184 186 183 187 181 170 156 149 144 138 128 118 132 134 134 135 138 139 138 133 127 122 119 117 117 116 112 107 103 100 99 100 99 95 89 83
186 187 182 189 191 180 174 172 169 158 162 153 141 134 133 133 132 128 123 116 122 125 122 122 122 122 122 120 118 115 111 108 107 105 101 98 95 91 88 86 86 85 81
187 178 184 194 187 167 156 156 159 156 148 131 120 108 110 116 125 122 118 116 110 111 114 116 114 114 114 114 113 111 107 103 102 101 98 95 92 90 86 82 80 77 72
174 169 183 194 182 166 161 165 163 156 143 127 114 97 96 105 107 116 112 109 106 104 105 112 111 110 109 109 110 109 104 100 96 94 93 90 87 87 85 82 79 73 67
159 150 175 182 177 170 166 162 160 145 138 131 111 91 75 82 84 95 107 104 103 104 99 98 98 103 106 106 104 104 102 98 96 94 91 87 83 82 81 78 73 68 62
117 144 167 181 193 187 177 167 152 138 133 130 115 103 67 61 72 75 93 104 106 106 101 97 91 86 98 100 101 101 98 94 89 89 87 83 78 73 70 69 66 63 56
76 113 170 176 181 171 165 163 144 139 146 158 143 131 124 83 53 57 81 107 110 108 107 106 101 93 86 81 99 98 94 92 89 84 81 77 71 65 60 53 46 42 34
57 71 77 98 122 160 173 160 154 150 153 157 154 144 148 156 133 48 53 89 111 114 110 110 107 103 99 86 89 96 96 90 90 89 84 77 68 58 50 43 36 27 16
42 50 60 64 90 110 128 142 135 137 144 152 136 94 125 140 144 136 73 62 96 110 118 122 114 109 107 102 106 109 102 95 92 88 84 78 68 57 45 36 30 22 17
41 45 50 58 67 83 94 95 107 113 125 138 138 121 96 91 104 133 145 142 92 78 99 112 119 114 116 115 117 132 121 111 103 94 85 77 65 52 38 31 24 18 14
39 40 49 55 60 64 78 95 95 100 103 103 99 100 124 135 139 130 136 142 129 100 78 95 123 131 139 141 155 151 145 140 132 119 100 81 62 45 31 24 20 15 12
49 38 46 52 56 58 65 76 82 82 90 95 94 88 84 87 117 120 126 130 118 102 85 64 120 151 160 158 174 171 173 174 175 173 166 137 48 21 13 13 11 9 7
59 53 57 57 59 64 68 69 73 71 77 85 85 83 79 66 82 110 131 135 122 93 87 132 60 175 163 173 199 187 195 201 202 206 211 223 249 291 327 347 352 352 353
64 59 64 64 63 66 70 75 76 73 76 74 78 78 73 60 64 76 102 132 136 135 139 175 151 199 177 185 209 197 214 224 224 222 222 228 238 252 273 293 310 321 325
60 60 62 63 63 64 69 76 77 72 75 69 72 73 67 61 65 65 79 82 102 125 132 166 184 180 179 191 202 201 229 237 239 235 229 229 235 242 254 266 279 291 303
59 61 62 65 64 62 65 73 76 76 76 71 70 74 68 63 64 59 64 71 78 103 115 96 66 111 140 183 205 249 257 245 249 243 232 227 231 235 241 252 263 272 286
59 62 64 65 67 64 63 72 80 77 81 79 75 73 67 70 61 57 63 65 70 82 116 117 78 54 94 215 239 282 290 261 249 251 236 228 230 232 235 243 251 257 265
62 62 65 66 66 65 64 66 72 73 74 76 77 78 72 73 66 61 64 64 67 77 93 113 96 41 26 20 33 349 341 336 288 259 232 232 237 238 237 239 243 250 257
67 66 65 63 62 63 63 64 68 70 71 71 73 76 75 76 78 75 72 69 78 78 81 92 82 50 35 9 55 22 353 337 322 333 315 258 249 247 243 240 241 245 253
70 70 69 60 56 56 55 64 68 75 75 72 66 69 75 81 80 78 87 83 84 83 81 83 78 55 28 26 17 347 360 328 321 336 333 307 287 272 257 248 243 247 252
66 70 69 65 58 54 55 61 72 73 77 80 75 64 64 56 56 58 67 86 102 106 108 102 97 104 238 250 294 19 35 20 322 308 357 302 300 278 266 246 247 250 253
73 73 71 69 62 46 51 55 65 79 78 84 86 76 65 51 48 47 47 53 58 83 121 136 137 186 210 219 183 5 308 219 248 268 36 302 312 290 278 266 254 250 251
78 76 74 71 63 44 48 54 64 72 75 80 93 97 86 51 42 57 58 49 39 33 71 146 193 224 224 214 190 190 215 278 289 287 160 258 298 290 294 297 275 260 257
86 83 84 77 67 40 43 55 69 73 75 70 76 87 91 73 55 68 67 52 31 3 359 347 257 253 248 231 190 140 67 51 342 308 300 186 280 304 306 294 288 277 268
109 98 83 73 74 54 46 60 74 81 82 73 58 50 62 74 64 71 79 68 33 337 339 343 347 345 332 297 197 182 174 160 213 284 274 185 270 335 319 294 288 290 282